Skip Page Navigation
NASA JPL Caltech
NASA Logo - Jet Propulsion Laboratory + View the NASA Portal
+ Near-Earth Object (NEO) Program
Search JPL
JPL Home Earth Solar System Stars & Galaxies Technology
JPL Solar System Dynamics
BODIES ORBITS EPHEMERIDES TOOLS PHYSICAL DATA DISCOVERY FAQ SITE MAP
JPL Small-Body Database Browser
Search: [ help ]  
354182 (2002 DU3)
Classification: Apollo [NEO, PHA]          SPK-ID: 2354182
Ephemeris | Orbit Diagram | Orbital Elements | Physical Parameters | Discovery Circumstances | Close-Approach Data ]

[ hide orbit diagram ]
Orbit Diagram
Note: Make sure you have Java enabled on your browser to see the applet. This applet is provided as a 3D orbit visualization tool. The applet was implemented using 2-body methods, and hence should not be used for determining accurate long-term trajectories (over several years or decades) or planetary encounter circumstances. For accurate long-term ephemerides, please instead use our Horizons system.
Orbit Viewer

Additional Notes: the orbits shown in the applet are color coded. The planets are white lines, and the asteroid/comet is a blue line. The bright white line indicates the portion of the orbit that is above the ecliptic plane, and the darker portion is below the ecliptic plane. Likewise for the asteroid/comet orbit, the light blue indicates the portion above the ecliptic plane, and the dark blue the portion below the ecliptic plane.

Orbit Viewer applet originally written and kindly provided by Osamu Ajiki (AstroArts), and further modified by Ron Baalke (JPL).


Orbital Elements at Epoch 2456400.5 (2013-Apr-18.0) TDB
Reference: JPL 14 (heliocentric ecliptic J2000)
 Element Value Uncertainty (1-sigma)   Units 
e .238309925637997 1.508e-07  
a 1.145495513772686 4.6214e-09 AU
q .8725125630668582 1.7163e-07 AU
i 8.70086076063202 1.3624e-05 deg
node .732347120904458 4.2333e-05 deg
peri 245.5232367955299 5.1328e-05 deg
M 325.2718576951827 3.9827e-05 deg
tp 2456443.698390648254
(2013-May-31.19839065)
4.973e-05 JED
period 447.8045642888972
1.23
2.71e-06
7.42e-09
d
yr
n .803922131905179 4.8651e-09 deg/d
Q 1.418478464478514 5.7228e-09 AU
  Orbit Determination Parameters
   # obs. used (total)      81  
   data-arc span      4039 days (11.06 yr)  
   first obs. used      2002-01-25  
   last obs. used      2013-02-15  
   planetary ephem.      DE405  
   SB-pert. ephem.      SB405-CPV-2  
   condition code      0  
   fit RMS      .65877  
   data source      ORB  
   producer      Otto Matic  
   solution date      2013-Apr-29 15:41:56  

Additional Information
 Earth MOID = .00752588 AU 
 T_jup = 5.443 
[ show covariance matrix ]

Ephemeris | Orbit Diagram | Orbital Elements | Physical Parameters | Discovery Circumstances | Close-Approach Data ]

Physical Parameter Table
Parameter Symbol Value Units Sigma Reference Notes
absolute magnitude H 20.584 mag .7324 14 autocmod 2.5c
SMASSII spectral type spec_B Sq   n/a Binzel et al. (2004) Meteorit. Planet. Sci. 39, 351-366  

354182 (2002 DU3)          Discovered 2002-Feb-22 by LINEAR at Socorro (704)
Reference: 20130225/Numbers.arcLast Updated: 2013-02-28

[ show close-approach data ]
Ephemeris | Orbit Diagram | Orbital Elements | Physical Parameters | Discovery Circumstances | Close-Approach Data ]
ABOUT SSD CREDITS/AWARDS PRIVACY/COPYRIGHT GLOSSARY LINKS
FirstGov 2013-Jun-20 02:09 UT
(server date/time)  
NASA Home Page
Site Manager:   Donald K. Yeomans
Webmaster  Alan B. Chamberlin